Current weather by "City, St" or "zip code"  
 

Current Conditions: Meridian, Meridian Naval Air Station - McCain Field, MS

Fair


65.0 F

Last Updated on Oct 31 2020, 12:56 pm CDT
Humidity: 56%
Wind Speed: 4.6 mph
Barometer 30.24 in
Dewpoint: 48.9 F
Visibility: 10.00 mi
Precip: --
Heat Index: NA
Wind Chill: NA
Current conditions at:

Meridian, Meridian Naval Air Station - McCain Field, MS (KNMM)

Lat: 32.55194 Lon: 88.55528

Local Radar Image active severe weather and emergency alerts image image weather storm and storm spotter reports image weather observation monitoring service image
Local
Radar
Active
Alerts
Storm Reports Obs
Monitoring

Sign-up For Email & Text Message Weather Alert Notification Services



Advertise Here

Observation History for Meridian, Meridian Naval Air Station - McCain Field, MS


Time Wind
(mph)
Vis
(mi)
Weather Precip (in) Temperature (F) Relative
Humidity
Wind
Chill
(F)
Heat
Index
(F)
Pressure
Air Dwpt altimeter
(in)
sea level
(mb)
Rmks
12:56 pm CDT 4.6 10.00 Fair -- 65.0 48.9 56% NA NA 30.24 1025.1
11:56 am CDT 3.5 10.00 Fair -- 62.0 48.0 60% NA NA 30.27 1026.1
10:56 am CDT 4.6 10.00 Fair -- 58.0 46.9 67% 58 NA 30.28 1026.3
9:56 am CDT E 4.6 10.00 Fair -- 52.0 45.0 77% 51 NA 30.29 1026.8
8:56 am CDT E 4.6 10.00 Fair -- 48.0 44.1 86% 46 NA 30.28 1026.5
7:56 am CDT N 0.0 10.00 Fair -- 43.0 41.0 93% NA NA 30.27 1026.0
6:56 am CDT N 0.0 9.00 Fair -- 41.0 39.9 96% NA NA 30.26 1025.8
5:56 am CDT N 0.0 10.00 Fair -- 42.0 39.9 92% NA NA 30.25 1025.5
4:56 am CDT NE 3.5 10.00 Fair -- 43.0 41.0 93% NA NA 30.24 1025.3
3:56 am CDT N 3.5 10.00 Fair -- 44.0 41.0 89% NA NA 30.24 1025.1
2:56 am CDT N 0.0 10.00 Fair -- 45.0 41.0 86% NA NA 30.23 1024.8
1:56 am CDT NE 3.5 10.00 Fair -- 46.0 41.0 83% NA NA 30.24 1025.1
12:56 am CDT N 0.0 10.00 Fair -- 46.0 42.1 86% NA NA 30.24 1025.2
11:56 pm CDT N 3.5 10.00 Fair -- 47.0 42.1 83% NA NA 30.24 1025.2
10:56 pm CDT N 5.8 10.00 Fair -- 48.0 43.0 83% 45 NA 30.25 1025.5
9:56 pm CDT N 5.8 10.00 Fair -- 50.0 43.0 77% 48 NA 30.24 1025.2
8:56 pm CDT N 5.8 10.00 Fair -- 50.0 43.0 77% 48 NA 30.24 1025.0
7:56 pm CDT N 4.6 10.00 Fair -- 50.0 45.0 83% 48 NA 30.23 1024.7
6:56 pm CDT N 3.5 10.00 Fair -- 52.0 46.0 80% NA NA 30.21 1024.3
5:56 pm CDT N 4.6 10.00 Fair -- 56.0 44.1 65% 55 NA 30.21 1024.2
4:56 pm CDT N 9.2 10.00 Fair -- 59.0 43.0 56% 57 NA 30.21 1024.0
3:56 pm CDT N 10.4 10.00 A Few Clouds -- 60.0 43.0 53% 58 NA 30.20 1023.8
2:56 pm CDT NE 10.4 10.00 A Few Clouds -- 59.0 42.1 54% 57 NA 30.20 1023.8

Regional Weather Observation


Meridian, Key Field, MS (KMEI)

Fair
67.0 F

George M Bryan Airport, Starkville, MS (KSTF)

Fair
61.0 F

Columbus/West Point/Starkville, Golden Triangle Regional Airport, MS (KGTR)

Fair
65.0 F

Columbus Air Force Base, MS (KCBM)

Fair
65.0 F

Monroe County Airport, MS (KM40)

Fair
68.0 F

Tuscaloosa Regional Airport, AL (KTCL)

Fair
72.0 F